Index of /20260428/WXO-DD/model_rdps/10km/12/066
Name Last modified Size Description
Parent Directory -
20260428T12Z_MSC_RDPS_AbsoluteVorticity_IsbL-0250_RLatLon0.09_PT066H.grib2 2026-04-28 14:58 611K
20260428T12Z_MSC_RDPS_AbsoluteVorticity_IsbL-0500_RLatLon0.09_PT066H.grib2 2026-04-28 14:58 559K
20260428T12Z_MSC_RDPS_AbsoluteVorticity_IsbL-0700_RLatLon0.09_PT066H.grib2 2026-04-28 14:58 612K
20260428T12Z_MSC_RDPS_AbsoluteVorticity_IsbL-0850_RLatLon0.09_PT066H.grib2 2026-04-28 14:58 764K
20260428T12Z_MSC_RDPS_AirTemp_AGL-120m_RLatLon0.09_PT066H.grib2 2026-04-28 14:58 370K
20260428T12Z_MSC_RDPS_AirTemp_AGL-2m_RLatLon0.09_PT066H.grib2 2026-04-28 14:58 628K
20260428T12Z_MSC_RDPS_AirTemp_AGL-40m_RLatLon0.09_PT066H.grib2 2026-04-28 14:58 404K
20260428T12Z_MSC_RDPS_AirTemp_AGL-80m_RLatLon0.09_PT066H.grib2 2026-04-28 14:58 378K
20260428T12Z_MSC_RDPS_AirTemp_IsbL-0001_RLatLon0.09_PT066H.grib2 2026-04-28 14:58 297K
20260428T12Z_MSC_RDPS_AirTemp_IsbL-0005_RLatLon0.09_PT066H.grib2 2026-04-28 14:58 290K
20260428T12Z_MSC_RDPS_AirTemp_IsbL-0010_RLatLon0.09_PT066H.grib2 2026-04-28 14:58 302K
20260428T12Z_MSC_RDPS_AirTemp_IsbL-0020_RLatLon0.09_PT066H.grib2 2026-04-28 14:58 317K
20260428T12Z_MSC_RDPS_AirTemp_IsbL-0030_RLatLon0.09_PT066H.grib2 2026-04-28 14:58 339K
20260428T12Z_MSC_RDPS_AirTemp_IsbL-0050_RLatLon0.09_PT066H.grib2 2026-04-28 14:58 312K
20260428T12Z_MSC_RDPS_AirTemp_IsbL-0100_RLatLon0.09_PT066H.grib2 2026-04-28 14:58 420K
20260428T12Z_MSC_RDPS_AirTemp_IsbL-0150_RLatLon0.09_PT066H.grib2 2026-04-28 14:58 418K
20260428T12Z_MSC_RDPS_AirTemp_IsbL-0175_RLatLon0.09_PT066H.grib2 2026-04-28 14:58 409K
20260428T12Z_MSC_RDPS_AirTemp_IsbL-0200_RLatLon0.09_PT066H.grib2 2026-04-28 14:58 412K
20260428T12Z_MSC_RDPS_AirTemp_IsbL-0225_RLatLon0.09_PT066H.grib2 2026-04-28 14:58 414K
20260428T12Z_MSC_RDPS_AirTemp_IsbL-0250_RLatLon0.09_PT066H.grib2 2026-04-28 14:58 422K
20260428T12Z_MSC_RDPS_AirTemp_IsbL-0275_RLatLon0.09_PT066H.grib2 2026-04-28 14:58 401K
20260428T12Z_MSC_RDPS_AirTemp_IsbL-0300_RLatLon0.09_PT066H.grib2 2026-04-28 14:58 408K
20260428T12Z_MSC_RDPS_AirTemp_IsbL-0350_RLatLon0.09_PT066H.grib2 2026-04-28 14:58 422K
20260428T12Z_MSC_RDPS_AirTemp_IsbL-0400_RLatLon0.09_PT066H.grib2 2026-04-28 14:58 424K
20260428T12Z_MSC_RDPS_AirTemp_IsbL-0450_RLatLon0.09_PT066H.grib2 2026-04-28 14:58 429K
20260428T12Z_MSC_RDPS_AirTemp_IsbL-0500_RLatLon0.09_PT066H.grib2 2026-04-28 14:58 404K
20260428T12Z_MSC_RDPS_AirTemp_IsbL-0550_RLatLon0.09_PT066H.grib2 2026-04-28 14:58 421K
20260428T12Z_MSC_RDPS_AirTemp_IsbL-0600_RLatLon0.09_PT066H.grib2 2026-04-28 14:58 440K
20260428T12Z_MSC_RDPS_AirTemp_IsbL-0650_RLatLon0.09_PT066H.grib2 2026-04-28 14:58 454K
20260428T12Z_MSC_RDPS_AirTemp_IsbL-0700_RLatLon0.09_PT066H.grib2 2026-04-28 14:58 373K
20260428T12Z_MSC_RDPS_AirTemp_IsbL-0750_RLatLon0.09_PT066H.grib2 2026-04-28 14:58 402K
20260428T12Z_MSC_RDPS_AirTemp_IsbL-0800_RLatLon0.09_PT066H.grib2 2026-04-28 14:58 441K
20260428T12Z_MSC_RDPS_AirTemp_IsbL-0850_RLatLon0.09_PT066H.grib2 2026-04-28 14:58 488K
20260428T12Z_MSC_RDPS_AirTemp_IsbL-0875_RLatLon0.09_PT066H.grib2 2026-04-28 14:58 508K
20260428T12Z_MSC_RDPS_AirTemp_IsbL-0900_RLatLon0.09_PT066H.grib2 2026-04-28 14:58 518K
20260428T12Z_MSC_RDPS_AirTemp_IsbL-0925_RLatLon0.09_PT066H.grib2 2026-04-28 14:58 518K
20260428T12Z_MSC_RDPS_AirTemp_IsbL-0950_RLatLon0.09_PT066H.grib2 2026-04-28 14:58 520K
20260428T12Z_MSC_RDPS_AirTemp_IsbL-0970_RLatLon0.09_PT066H.grib2 2026-04-28 14:58 513K
20260428T12Z_MSC_RDPS_AirTemp_IsbL-0985_RLatLon0.09_PT066H.grib2 2026-04-28 14:58 501K
20260428T12Z_MSC_RDPS_AirTemp_IsbL-1000_RLatLon0.09_PT066H.grib2 2026-04-28 14:58 486K
20260428T12Z_MSC_RDPS_AirTemp_IsbL-1015_RLatLon0.09_PT066H.grib2 2026-04-28 14:58 482K
20260428T12Z_MSC_RDPS_Albedo_Sfc_RLatLon0.09_PT066H.grib2 2026-04-28 14:58 158K
20260428T12Z_MSC_RDPS_CAPE_Sfc_RLatLon0.09_PT066H.grib2 2026-04-28 14:58 1.6M
20260428T12Z_MSC_RDPS_CIN_Sfc_RLatLon0.09_PT066H.grib2 2026-04-28 14:58 1.1M
20260428T12Z_MSC_RDPS_CloudWater_EAtm_RLatLon0.09_PT066H.grib2 2026-04-28 14:58 219K
20260428T12Z_MSC_RDPS_ConvectivePrecip-Accum_Sfc_RLatLon0.09_PT066H.grib2 2026-04-28 14:58 1.2M
20260428T12Z_MSC_RDPS_DewPointDepression_AGL-2m_RLatLon0.09_PT066H.grib2 2026-04-28 14:58 392K
20260428T12Z_MSC_RDPS_DewPointDepression_IsbL-0001_RLatLon0.09_PT066H.grib2 2026-04-28 14:58 193
20260428T12Z_MSC_RDPS_DewPointDepression_IsbL-0005_RLatLon0.09_PT066H.grib2 2026-04-28 14:58 193
20260428T12Z_MSC_RDPS_DewPointDepression_IsbL-0010_RLatLon0.09_PT066H.grib2 2026-04-28 14:58 193
20260428T12Z_MSC_RDPS_DewPointDepression_IsbL-0020_RLatLon0.09_PT066H.grib2 2026-04-28 14:58 193
20260428T12Z_MSC_RDPS_DewPointDepression_IsbL-0030_RLatLon0.09_PT066H.grib2 2026-04-28 14:58 193
20260428T12Z_MSC_RDPS_DewPointDepression_IsbL-0050_RLatLon0.09_PT066H.grib2 2026-04-28 14:58 79K
20260428T12Z_MSC_RDPS_DewPointDepression_IsbL-0100_RLatLon0.09_PT066H.grib2 2026-04-28 14:58 126K
20260428T12Z_MSC_RDPS_DewPointDepression_IsbL-0150_RLatLon0.09_PT066H.grib2 2026-04-28 14:58 146K
20260428T12Z_MSC_RDPS_DewPointDepression_IsbL-0175_RLatLon0.09_PT066H.grib2 2026-04-28 14:58 177K
20260428T12Z_MSC_RDPS_DewPointDepression_IsbL-0200_RLatLon0.09_PT066H.grib2 2026-04-28 14:58 215K
20260428T12Z_MSC_RDPS_DewPointDepression_IsbL-0225_RLatLon0.09_PT066H.grib2 2026-04-28 14:58 258K
20260428T12Z_MSC_RDPS_DewPointDepression_IsbL-0250_RLatLon0.09_PT066H.grib2 2026-04-28 14:58 299K
20260428T12Z_MSC_RDPS_DewPointDepression_IsbL-0275_RLatLon0.09_PT066H.grib2 2026-04-28 14:58 307K
20260428T12Z_MSC_RDPS_DewPointDepression_IsbL-0300_RLatLon0.09_PT066H.grib2 2026-04-28 14:58 326K
20260428T12Z_MSC_RDPS_DewPointDepression_IsbL-0350_RLatLon0.09_PT066H.grib2 2026-04-28 14:58 330K
20260428T12Z_MSC_RDPS_DewPointDepression_IsbL-0400_RLatLon0.09_PT066H.grib2 2026-04-28 14:58 340K
20260428T12Z_MSC_RDPS_DewPointDepression_IsbL-0450_RLatLon0.09_PT066H.grib2 2026-04-28 14:58 347K
20260428T12Z_MSC_RDPS_DewPointDepression_IsbL-0500_RLatLon0.09_PT066H.grib2 2026-04-28 14:58 351K
20260428T12Z_MSC_RDPS_DewPointDepression_IsbL-0550_RLatLon0.09_PT066H.grib2 2026-04-28 14:58 360K
20260428T12Z_MSC_RDPS_DewPointDepression_IsbL-0600_RLatLon0.09_PT066H.grib2 2026-04-28 14:58 374K
20260428T12Z_MSC_RDPS_DewPointDepression_IsbL-0650_RLatLon0.09_PT066H.grib2 2026-04-28 14:58 378K
20260428T12Z_MSC_RDPS_DewPointDepression_IsbL-0700_RLatLon0.09_PT066H.grib2 2026-04-28 14:58 388K
20260428T12Z_MSC_RDPS_DewPointDepression_IsbL-0750_RLatLon0.09_PT066H.grib2 2026-04-28 14:58 404K
20260428T12Z_MSC_RDPS_DewPointDepression_IsbL-0800_RLatLon0.09_PT066H.grib2 2026-04-28 14:58 433K
20260428T12Z_MSC_RDPS_DewPointDepression_IsbL-0850_RLatLon0.09_PT066H.grib2 2026-04-28 14:58 463K
20260428T12Z_MSC_RDPS_DewPointDepression_IsbL-0875_RLatLon0.09_PT066H.grib2 2026-04-28 14:58 468K
20260428T12Z_MSC_RDPS_DewPointDepression_IsbL-0900_RLatLon0.09_PT066H.grib2 2026-04-28 14:58 460K
20260428T12Z_MSC_RDPS_DewPointDepression_IsbL-0925_RLatLon0.09_PT066H.grib2 2026-04-28 14:58 444K
20260428T12Z_MSC_RDPS_DewPointDepression_IsbL-0950_RLatLon0.09_PT066H.grib2 2026-04-28 14:58 437K
20260428T12Z_MSC_RDPS_DewPointDepression_IsbL-0970_RLatLon0.09_PT066H.grib2 2026-04-28 14:58 428K
20260428T12Z_MSC_RDPS_DewPointDepression_IsbL-0985_RLatLon0.09_PT066H.grib2 2026-04-28 14:58 423K
20260428T12Z_MSC_RDPS_DewPointDepression_IsbL-1000_RLatLon0.09_PT066H.grib2 2026-04-28 14:58 417K
20260428T12Z_MSC_RDPS_DewPointDepression_IsbL-1015_RLatLon0.09_PT066H.grib2 2026-04-28 14:58 408K
20260428T12Z_MSC_RDPS_DewPoint_AGL-2m_RLatLon0.09_PT066H.grib2 2026-04-28 14:58 304K
20260428T12Z_MSC_RDPS_DownwardLongwaveRadiationFlux-Accum_Sfc_RLatLon0.09_PT066H.grib2 2026-04-28 14:58 411K
20260428T12Z_MSC_RDPS_DownwardShortwaveRadiationFlux-Accum_NTAtm_RLatLon0.09_PT066H.grib2 2026-04-28 14:58 109K
20260428T12Z_MSC_RDPS_DownwardShortwaveRadiationFlux-Accum_Sfc_RLatLon0.09_PT066H.grib2 2026-04-28 14:58 611K
20260428T12Z_MSC_RDPS_FreezingRain-Accum12h_Sfc_RLatLon0.09_PT066H.grib2 2026-04-28 14:58 59K
20260428T12Z_MSC_RDPS_FreezingRain-Accum1h_Sfc_RLatLon0.09_PT066H.grib2 2026-04-28 14:58 42K
20260428T12Z_MSC_RDPS_FreezingRain-Accum24h_Sfc_RLatLon0.09_PT066H.grib2 2026-04-28 14:58 103K
20260428T12Z_MSC_RDPS_FreezingRain-Accum3h_Sfc_RLatLon0.09_PT066H.grib2 2026-04-28 14:58 46K
20260428T12Z_MSC_RDPS_FreezingRain-Accum6h_Sfc_RLatLon0.09_PT066H.grib2 2026-04-28 14:58 54K
20260428T12Z_MSC_RDPS_FreezingRain-Accum_Sfc_RLatLon0.09_PT066H.grib2 2026-04-28 14:58 205K
20260428T12Z_MSC_RDPS_GeopotentialHeight_IsbL-0001_RLatLon0.09_PT066H.grib2 2026-04-28 14:58 306K
20260428T12Z_MSC_RDPS_GeopotentialHeight_IsbL-0005_RLatLon0.09_PT066H.grib2 2026-04-28 14:58 299K
20260428T12Z_MSC_RDPS_GeopotentialHeight_IsbL-0010_RLatLon0.09_PT066H.grib2 2026-04-28 14:58 302K
20260428T12Z_MSC_RDPS_GeopotentialHeight_IsbL-0020_RLatLon0.09_PT066H.grib2 2026-04-28 14:58 301K
20260428T12Z_MSC_RDPS_GeopotentialHeight_IsbL-0030_RLatLon0.09_PT066H.grib2 2026-04-28 14:58 302K
20260428T12Z_MSC_RDPS_GeopotentialHeight_IsbL-0050_RLatLon0.09_PT066H.grib2 2026-04-28 14:58 305K
20260428T12Z_MSC_RDPS_GeopotentialHeight_IsbL-0100_RLatLon0.09_PT066H.grib2 2026-04-28 14:58 282K
20260428T12Z_MSC_RDPS_GeopotentialHeight_IsbL-0150_RLatLon0.09_PT066H.grib2 2026-04-28 14:58 225K
20260428T12Z_MSC_RDPS_GeopotentialHeight_IsbL-0175_RLatLon0.09_PT066H.grib2 2026-04-28 14:58 259K
20260428T12Z_MSC_RDPS_GeopotentialHeight_IsbL-0200_RLatLon0.09_PT066H.grib2 2026-04-28 14:58 262K
20260428T12Z_MSC_RDPS_GeopotentialHeight_IsbL-0225_RLatLon0.09_PT066H.grib2 2026-04-28 14:58 263K
20260428T12Z_MSC_RDPS_GeopotentialHeight_IsbL-0250_RLatLon0.09_PT066H.grib2 2026-04-28 14:58 264K
20260428T12Z_MSC_RDPS_GeopotentialHeight_IsbL-0275_RLatLon0.09_PT066H.grib2 2026-04-28 14:58 264K
20260428T12Z_MSC_RDPS_GeopotentialHeight_IsbL-0300_RLatLon0.09_PT066H.grib2 2026-04-28 14:58 264K
20260428T12Z_MSC_RDPS_GeopotentialHeight_IsbL-0350_RLatLon0.09_PT066H.grib2 2026-04-28 14:58 230K
20260428T12Z_MSC_RDPS_GeopotentialHeight_IsbL-0400_RLatLon0.09_PT066H.grib2 2026-04-28 14:58 227K
20260428T12Z_MSC_RDPS_GeopotentialHeight_IsbL-0450_RLatLon0.09_PT066H.grib2 2026-04-28 14:58 294K
20260428T12Z_MSC_RDPS_GeopotentialHeight_IsbL-0500_RLatLon0.09_PT066H.grib2 2026-04-28 14:58 288K
20260428T12Z_MSC_RDPS_GeopotentialHeight_IsbL-0550_RLatLon0.09_PT066H.grib2 2026-04-28 14:58 284K
20260428T12Z_MSC_RDPS_GeopotentialHeight_IsbL-0600_RLatLon0.09_PT066H.grib2 2026-04-28 14:58 254K
20260428T12Z_MSC_RDPS_GeopotentialHeight_IsbL-0650_RLatLon0.09_PT066H.grib2 2026-04-28 14:58 252K
20260428T12Z_MSC_RDPS_GeopotentialHeight_IsbL-0700_RLatLon0.09_PT066H.grib2 2026-04-28 14:58 332K
20260428T12Z_MSC_RDPS_GeopotentialHeight_IsbL-0750_RLatLon0.09_PT066H.grib2 2026-04-28 14:58 335K
20260428T12Z_MSC_RDPS_GeopotentialHeight_IsbL-0800_RLatLon0.09_PT066H.grib2 2026-04-28 14:58 342K
20260428T12Z_MSC_RDPS_GeopotentialHeight_IsbL-0850_RLatLon0.09_PT066H.grib2 2026-04-28 14:58 351K
20260428T12Z_MSC_RDPS_GeopotentialHeight_IsbL-0875_RLatLon0.09_PT066H.grib2 2026-04-28 14:58 352K
20260428T12Z_MSC_RDPS_GeopotentialHeight_IsbL-0900_RLatLon0.09_PT066H.grib2 2026-04-28 14:58 357K
20260428T12Z_MSC_RDPS_GeopotentialHeight_IsbL-0925_RLatLon0.09_PT066H.grib2 2026-04-28 14:58 358K
20260428T12Z_MSC_RDPS_GeopotentialHeight_IsbL-0950_RLatLon0.09_PT066H.grib2 2026-04-28 14:58 364K
20260428T12Z_MSC_RDPS_GeopotentialHeight_IsbL-0970_RLatLon0.09_PT066H.grib2 2026-04-28 14:58 369K
20260428T12Z_MSC_RDPS_GeopotentialHeight_IsbL-0985_RLatLon0.09_PT066H.grib2 2026-04-28 14:58 377K
20260428T12Z_MSC_RDPS_GeopotentialHeight_IsbL-1000_RLatLon0.09_PT066H.grib2 2026-04-28 14:58 387K
20260428T12Z_MSC_RDPS_GeopotentialHeight_IsbL-1015_RLatLon0.09_PT066H.grib2 2026-04-28 14:58 402K
20260428T12Z_MSC_RDPS_Humidex_Sfc_RLatLon0.09_PT066H.grib2 2026-04-28 14:58 2.4M
20260428T12Z_MSC_RDPS_IcePellets-Accum12h_Sfc_RLatLon0.09_PT066H.grib2 2026-04-28 14:58 5.9K
20260428T12Z_MSC_RDPS_IcePellets-Accum1h_Sfc_RLatLon0.09_PT066H.grib2 2026-04-28 14:58 2.6K
20260428T12Z_MSC_RDPS_IcePellets-Accum24h_Sfc_RLatLon0.09_PT066H.grib2 2026-04-28 14:58 8.1K
20260428T12Z_MSC_RDPS_IcePellets-Accum3h_Sfc_RLatLon0.09_PT066H.grib2 2026-04-28 14:58 3.4K
20260428T12Z_MSC_RDPS_IcePellets-Accum6h_Sfc_RLatLon0.09_PT066H.grib2 2026-04-28 14:58 3.6K
20260428T12Z_MSC_RDPS_IcePellets-Accum_Sfc_RLatLon0.09_PT066H.grib2 2026-04-28 14:58 29K
20260428T12Z_MSC_RDPS_KIndex_Sfc_RLatLon0.09_PT066H.grib2 2026-04-28 14:58 2.5M
20260428T12Z_MSC_RDPS_LatentHeatNetFlux_Sfc_RLatLon0.09_PT066H.grib2 2026-04-28 14:58 399K
20260428T12Z_MSC_RDPS_LiftedIndex-MU-VT_IsbL-0500_RLatLon0.09_PT066H.grib2 2026-04-28 14:58 2.4M
20260428T12Z_MSC_RDPS_NetLongwaveRadiationFlux-Accum_Sfc_RLatLon0.09_PT066H.grib2 2026-04-28 14:58 587K
20260428T12Z_MSC_RDPS_NetShortwaveRadiationFlux-Accum_Sfc_RLatLon0.09_PT066H.grib2 2026-04-28 14:58 613K
20260428T12Z_MSC_RDPS_PlanetaryBoundaryLayerHeight_Sfc_RLatLon0.09_PT066H.grib2 2026-04-28 14:58 1.1M
20260428T12Z_MSC_RDPS_Precip-Accum12h_Sfc_RLatLon0.09_PT066H.grib2 2026-04-28 14:58 1.7M
20260428T12Z_MSC_RDPS_Precip-Accum1h_Sfc_RLatLon0.09_PT066H.grib2 2026-04-28 14:58 1.2M
20260428T12Z_MSC_RDPS_Precip-Accum24h_Sfc_RLatLon0.09_PT066H.grib2 2026-04-28 14:58 1.9M
20260428T12Z_MSC_RDPS_Precip-Accum3h_Sfc_RLatLon0.09_PT066H.grib2 2026-04-28 14:58 1.3M
20260428T12Z_MSC_RDPS_Precip-Accum6h_Sfc_RLatLon0.09_PT066H.grib2 2026-04-28 14:58 1.4M
20260428T12Z_MSC_RDPS_Precip-Accum_Sfc_RLatLon0.09_PT066H.grib2 2026-04-28 14:58 2.1M
20260428T12Z_MSC_RDPS_PrecipRate_Sfc_RLatLon0.09_PT066H.grib2 2026-04-28 14:58 172K
20260428T12Z_MSC_RDPS_PrecipType-Instant_Sfc_RLatLon0.09_PT066H.grib2 2026-04-28 14:58 562K
20260428T12Z_MSC_RDPS_Pressure-Trend3h_Sfc_RLatLon0.09_PT066H.grib2 2026-04-28 14:58 1.2M
20260428T12Z_MSC_RDPS_Pressure_MSL_RLatLon0.09_PT066H.grib2 2026-04-28 14:58 321K
20260428T12Z_MSC_RDPS_Pressure_PVU-1.5_RLatLon0.09_PT066H.grib2 2026-04-28 14:58 2.5M
20260428T12Z_MSC_RDPS_Pressure_PVU-1_RLatLon0.09_PT066H.grib2 2026-04-28 14:58 2.4M
20260428T12Z_MSC_RDPS_Pressure_PVU-2_RLatLon0.09_PT066H.grib2 2026-04-28 14:58 2.4M
20260428T12Z_MSC_RDPS_Pressure_Sfc_RLatLon0.09_PT066H.grib2 2026-04-28 14:58 498K
20260428T12Z_MSC_RDPS_RadiativeTemp_Sfc_RLatLon0.09_PT066H.grib2 2026-04-28 14:58 304K
20260428T12Z_MSC_RDPS_Rain-Accum12h_Sfc_RLatLon0.09_PT066H.grib2 2026-04-28 14:58 1.1M
20260428T12Z_MSC_RDPS_Rain-Accum1h_Sfc_RLatLon0.09_PT066H.grib2 2026-04-28 14:58 586K
20260428T12Z_MSC_RDPS_Rain-Accum24h_Sfc_RLatLon0.09_PT066H.grib2 2026-04-28 14:58 1.3M
20260428T12Z_MSC_RDPS_Rain-Accum3h_Sfc_RLatLon0.09_PT066H.grib2 2026-04-28 14:58 656K
20260428T12Z_MSC_RDPS_Rain-Accum6h_Sfc_RLatLon0.09_PT066H.grib2 2026-04-28 14:58 951K
20260428T12Z_MSC_RDPS_Rain-Accum_Sfc_RLatLon0.09_PT066H.grib2 2026-04-28 14:58 1.7M
20260428T12Z_MSC_RDPS_RelativeHumidity_AGL-2m_RLatLon0.09_PT066H.grib2 2026-04-28 14:58 1.0M
20260428T12Z_MSC_RDPS_RelativeHumidity_IsbL-0010_RLatLon0.09_PT066H.grib2 2026-04-28 14:58 631K
20260428T12Z_MSC_RDPS_RelativeHumidity_IsbL-0020_RLatLon0.09_PT066H.grib2 2026-04-28 14:58 668K
20260428T12Z_MSC_RDPS_RelativeHumidity_IsbL-0030_RLatLon0.09_PT066H.grib2 2026-04-28 14:58 605K
20260428T12Z_MSC_RDPS_RelativeHumidity_IsbL-0050_RLatLon0.09_PT066H.grib2 2026-04-28 14:58 364K
20260428T12Z_MSC_RDPS_RelativeHumidity_IsbL-0100_RLatLon0.09_PT066H.grib2 2026-04-28 14:58 275K
20260428T12Z_MSC_RDPS_RelativeHumidity_IsbL-0150_RLatLon0.09_PT066H.grib2 2026-04-28 14:58 398K
20260428T12Z_MSC_RDPS_RelativeHumidity_IsbL-0175_RLatLon0.09_PT066H.grib2 2026-04-28 14:58 463K
20260428T12Z_MSC_RDPS_RelativeHumidity_IsbL-0200_RLatLon0.09_PT066H.grib2 2026-04-28 14:58 546K
20260428T12Z_MSC_RDPS_RelativeHumidity_IsbL-0225_RLatLon0.09_PT066H.grib2 2026-04-28 14:58 618K
20260428T12Z_MSC_RDPS_RelativeHumidity_IsbL-0250_RLatLon0.09_PT066H.grib2 2026-04-28 14:58 695K
20260428T12Z_MSC_RDPS_RelativeHumidity_IsbL-0275_RLatLon0.09_PT066H.grib2 2026-04-28 14:58 723K
20260428T12Z_MSC_RDPS_RelativeHumidity_IsbL-0300_RLatLon0.09_PT066H.grib2 2026-04-28 14:58 768K
20260428T12Z_MSC_RDPS_RelativeHumidity_IsbL-0350_RLatLon0.09_PT066H.grib2 2026-04-28 14:58 783K
20260428T12Z_MSC_RDPS_RelativeHumidity_IsbL-0400_RLatLon0.09_PT066H.grib2 2026-04-28 14:58 794K
20260428T12Z_MSC_RDPS_RelativeHumidity_IsbL-0450_RLatLon0.09_PT066H.grib2 2026-04-28 14:58 797K
20260428T12Z_MSC_RDPS_RelativeHumidity_IsbL-0500_RLatLon0.09_PT066H.grib2 2026-04-28 14:58 800K
20260428T12Z_MSC_RDPS_RelativeHumidity_IsbL-0550_RLatLon0.09_PT066H.grib2 2026-04-28 14:58 816K
20260428T12Z_MSC_RDPS_RelativeHumidity_IsbL-0600_RLatLon0.09_PT066H.grib2 2026-04-28 14:58 839K
20260428T12Z_MSC_RDPS_RelativeHumidity_IsbL-0650_RLatLon0.09_PT066H.grib2 2026-04-28 14:58 853K
20260428T12Z_MSC_RDPS_RelativeHumidity_IsbL-0700_RLatLon0.09_PT066H.grib2 2026-04-28 14:58 875K
20260428T12Z_MSC_RDPS_RelativeHumidity_IsbL-0750_RLatLon0.09_PT066H.grib2 2026-04-28 14:58 918K
20260428T12Z_MSC_RDPS_RelativeHumidity_IsbL-0800_RLatLon0.09_PT066H.grib2 2026-04-28 14:58 968K
20260428T12Z_MSC_RDPS_RelativeHumidity_IsbL-0850_RLatLon0.09_PT066H.grib2 2026-04-28 14:58 1.0M
20260428T12Z_MSC_RDPS_RelativeHumidity_IsbL-0875_RLatLon0.09_PT066H.grib2 2026-04-28 14:58 1.0M
20260428T12Z_MSC_RDPS_RelativeHumidity_IsbL-0900_RLatLon0.09_PT066H.grib2 2026-04-28 14:58 1.1M
20260428T12Z_MSC_RDPS_RelativeHumidity_IsbL-0925_RLatLon0.09_PT066H.grib2 2026-04-28 14:58 1.0M
20260428T12Z_MSC_RDPS_RelativeHumidity_IsbL-0950_RLatLon0.09_PT066H.grib2 2026-04-28 14:58 1.1M
20260428T12Z_MSC_RDPS_RelativeHumidity_IsbL-0970_RLatLon0.09_PT066H.grib2 2026-04-28 14:58 1.0M
20260428T12Z_MSC_RDPS_RelativeHumidity_IsbL-0985_RLatLon0.09_PT066H.grib2 2026-04-28 14:58 1.0M
20260428T12Z_MSC_RDPS_RelativeHumidity_IsbL-1000_RLatLon0.09_PT066H.grib2 2026-04-28 14:58 1.0M
20260428T12Z_MSC_RDPS_RelativeHumidity_IsbL-1015_RLatLon0.09_PT066H.grib2 2026-04-28 14:58 1.0M
20260428T12Z_MSC_RDPS_Runoff-Accum_Sfc_RLatLon0.09_PT066H.grib2 2026-04-28 14:58 62K
20260428T12Z_MSC_RDPS_SWEATIndex_Sfc_RLatLon0.09_PT066H.grib2 2026-04-28 14:58 2.4M
20260428T12Z_MSC_RDPS_SeeingIndex_EAtm_RLatLon0.09_PT066H.grib2 2026-04-28 14:58 1.0M
20260428T12Z_MSC_RDPS_SensibleHeatNetFlux_Sfc_RLatLon0.09_PT066H.grib2 2026-04-28 14:58 287K
20260428T12Z_MSC_RDPS_ShowalterIndex_IsbL-0500_RLatLon0.09_PT066H.grib2 2026-04-28 14:58 2.6M
20260428T12Z_MSC_RDPS_SkyTransparencyIndex_EAtm_RLatLon0.09_PT066H.grib2 2026-04-28 14:58 687K
20260428T12Z_MSC_RDPS_Snow-Accum12h_Sfc_RLatLon0.09_PT066H.grib2 2026-04-28 14:58 600K
20260428T12Z_MSC_RDPS_Snow-Accum1h_Sfc_RLatLon0.09_PT066H.grib2 2026-04-28 14:58 457K
20260428T12Z_MSC_RDPS_Snow-Accum24h_Sfc_RLatLon0.09_PT066H.grib2 2026-04-28 14:58 653K
20260428T12Z_MSC_RDPS_Snow-Accum3h_Sfc_RLatLon0.09_PT066H.grib2 2026-04-28 14:58 456K
20260428T12Z_MSC_RDPS_Snow-Accum6h_Sfc_RLatLon0.09_PT066H.grib2 2026-04-28 14:58 551K
20260428T12Z_MSC_RDPS_Snow-Accum_Sfc_RLatLon0.09_PT066H.grib2 2026-04-28 14:58 785K
20260428T12Z_MSC_RDPS_SnowDensity_Sfc_RLatLon0.09_PT066H.grib2 2026-04-28 14:58 182K
20260428T12Z_MSC_RDPS_SnowDepth_Sfc_RLatLon0.09_PT066H.grib2 2026-04-28 14:58 680K
20260428T12Z_MSC_RDPS_SoilTemp_DBS-0to10cm_RLatLon0.09_PT066H.grib2 2026-04-28 14:58 241K
20260428T12Z_MSC_RDPS_SoilTemp_Sfc_RLatLon0.09_PT066H.grib2 2026-04-28 14:58 269K
20260428T12Z_MSC_RDPS_SoilVolumetricIceContent_Sfc_RLatLon0.09_PT066H.grib2 2026-04-28 14:58 162K
20260428T12Z_MSC_RDPS_SoilVolumetricWaterContent_DBS-0to10cm_RLatLon0.09_PT066H.grib2 2026-04-28 14:58 270K
20260428T12Z_MSC_RDPS_SoilVolumetricWaterContent_DBS-0to1cm_RLatLon0.09_PT066H.grib2 2026-04-28 14:58 340K
20260428T12Z_MSC_RDPS_SpecificHumidity_AGL-120m_RLatLon0.09_PT066H.grib2 2026-04-28 14:58 483K
20260428T12Z_MSC_RDPS_SpecificHumidity_AGL-2m_RLatLon0.09_PT066H.grib2 2026-04-28 14:58 648K
20260428T12Z_MSC_RDPS_SpecificHumidity_AGL-40m_RLatLon0.09_PT066H.grib2 2026-04-28 14:58 489K
20260428T12Z_MSC_RDPS_SpecificHumidity_AGL-80m_RLatLon0.09_PT066H.grib2 2026-04-28 14:58 484K
20260428T12Z_MSC_RDPS_SpecificHumidity_IsbL-0001_RLatLon0.09_PT066H.grib2 2026-04-28 14:58 350K
20260428T12Z_MSC_RDPS_SpecificHumidity_IsbL-0005_RLatLon0.09_PT066H.grib2 2026-04-28 14:58 356K
20260428T12Z_MSC_RDPS_SpecificHumidity_IsbL-0010_RLatLon0.09_PT066H.grib2 2026-04-28 14:58 390K
20260428T12Z_MSC_RDPS_SpecificHumidity_IsbL-0020_RLatLon0.09_PT066H.grib2 2026-04-28 14:58 379K
20260428T12Z_MSC_RDPS_SpecificHumidity_IsbL-0030_RLatLon0.09_PT066H.grib2 2026-04-28 14:58 362K
20260428T12Z_MSC_RDPS_SpecificHumidity_IsbL-0050_RLatLon0.09_PT066H.grib2 2026-04-28 14:58 441K
20260428T12Z_MSC_RDPS_SpecificHumidity_IsbL-0100_RLatLon0.09_PT066H.grib2 2026-04-28 14:58 418K
20260428T12Z_MSC_RDPS_SpecificHumidity_IsbL-0150_RLatLon0.09_PT066H.grib2 2026-04-28 14:58 444K
20260428T12Z_MSC_RDPS_SpecificHumidity_IsbL-0175_RLatLon0.09_PT066H.grib2 2026-04-28 14:58 422K
20260428T12Z_MSC_RDPS_SpecificHumidity_IsbL-0200_RLatLon0.09_PT066H.grib2 2026-04-28 14:58 440K
20260428T12Z_MSC_RDPS_SpecificHumidity_IsbL-0225_RLatLon0.09_PT066H.grib2 2026-04-28 14:58 446K
20260428T12Z_MSC_RDPS_SpecificHumidity_IsbL-0250_RLatLon0.09_PT066H.grib2 2026-04-28 14:58 557K
20260428T12Z_MSC_RDPS_SpecificHumidity_IsbL-0275_RLatLon0.09_PT066H.grib2 2026-04-28 14:58 473K
20260428T12Z_MSC_RDPS_SpecificHumidity_IsbL-0300_RLatLon0.09_PT066H.grib2 2026-04-28 14:58 573K
20260428T12Z_MSC_RDPS_SpecificHumidity_IsbL-0350_RLatLon0.09_PT066H.grib2 2026-04-28 14:58 564K
20260428T12Z_MSC_RDPS_SpecificHumidity_IsbL-0400_RLatLon0.09_PT066H.grib2 2026-04-28 14:58 520K
20260428T12Z_MSC_RDPS_SpecificHumidity_IsbL-0450_RLatLon0.09_PT066H.grib2 2026-04-28 14:58 571K
20260428T12Z_MSC_RDPS_SpecificHumidity_IsbL-0500_RLatLon0.09_PT066H.grib2 2026-04-28 14:58 506K
20260428T12Z_MSC_RDPS_SpecificHumidity_IsbL-0550_RLatLon0.09_PT066H.grib2 2026-04-28 14:58 577K
20260428T12Z_MSC_RDPS_SpecificHumidity_IsbL-0600_RLatLon0.09_PT066H.grib2 2026-04-28 14:58 633K
20260428T12Z_MSC_RDPS_SpecificHumidity_IsbL-0650_RLatLon0.09_PT066H.grib2 2026-04-28 14:58 550K
20260428T12Z_MSC_RDPS_SpecificHumidity_IsbL-0700_RLatLon0.09_PT066H.grib2 2026-04-28 14:58 591K
20260428T12Z_MSC_RDPS_SpecificHumidity_IsbL-0750_RLatLon0.09_PT066H.grib2 2026-04-28 14:58 641K
20260428T12Z_MSC_RDPS_SpecificHumidity_IsbL-0800_RLatLon0.09_PT066H.grib2 2026-04-28 14:58 717K
20260428T12Z_MSC_RDPS_SpecificHumidity_IsbL-0850_RLatLon0.09_PT066H.grib2 2026-04-28 14:58 787K
20260428T12Z_MSC_RDPS_SpecificHumidity_IsbL-0875_RLatLon0.09_PT066H.grib2 2026-04-28 14:58 815K
20260428T12Z_MSC_RDPS_SpecificHumidity_IsbL-0900_RLatLon0.09_PT066H.grib2 2026-04-28 14:58 831K
20260428T12Z_MSC_RDPS_SpecificHumidity_IsbL-0925_RLatLon0.09_PT066H.grib2 2026-04-28 14:58 833K
20260428T12Z_MSC_RDPS_SpecificHumidity_IsbL-0950_RLatLon0.09_PT066H.grib2 2026-04-28 14:58 835K
20260428T12Z_MSC_RDPS_SpecificHumidity_IsbL-0970_RLatLon0.09_PT066H.grib2 2026-04-28 14:58 683K
20260428T12Z_MSC_RDPS_SpecificHumidity_IsbL-0985_RLatLon0.09_PT066H.grib2 2026-04-28 14:58 673K
20260428T12Z_MSC_RDPS_SpecificHumidity_IsbL-1000_RLatLon0.09_PT066H.grib2 2026-04-28 14:58 666K
20260428T12Z_MSC_RDPS_SpecificHumidity_IsbL-1015_RLatLon0.09_PT066H.grib2 2026-04-28 14:58 655K
20260428T12Z_MSC_RDPS_SpecificHumidity_Sfc_RLatLon0.09_PT066H.grib2 2026-04-28 14:58 296K
20260428T12Z_MSC_RDPS_StormRelativeHelicity_EtaL-10000_RLatLon0.09_PT066H.grib2 2026-04-28 14:58 1.1M
20260428T12Z_MSC_RDPS_StormSeverityIndex_EtaL-10000_RLatLon0.09_PT066H.grib2 2026-04-28 14:58 1.2M
20260428T12Z_MSC_RDPS_Thickness_IsbL-0850to0700_RLatLon0.09_PT066H.grib2 2026-04-28 14:58 175K
20260428T12Z_MSC_RDPS_Thickness_IsbL-1000to0500_RLatLon0.09_PT066H.grib2 2026-04-28 14:58 196K
20260428T12Z_MSC_RDPS_Thickness_IsbL-1000to0850_RLatLon0.09_PT066H.grib2 2026-04-28 14:58 257K
20260428T12Z_MSC_RDPS_TotalCloudCover_Sfc_RLatLon0.09_PT066H.grib2 2026-04-28 14:58 651K
20260428T12Z_MSC_RDPS_TotalTotalsIndex_Sfc_RLatLon0.09_PT066H.grib2 2026-04-28 14:58 2.4M
20260428T12Z_MSC_RDPS_UVIndex-ClearSky_Sfc_RLatLon0.09_PT066H.grib2 2026-04-28 14:58 122K
20260428T12Z_MSC_RDPS_UVIndex_Sfc_RLatLon0.09_PT066H.grib2 2026-04-28 14:58 199K
20260428T12Z_MSC_RDPS_UpwardLongwaveRadiationFlux_NTAtm_RLatLon0.09_PT066H.grib2 2026-04-28 14:58 480K
20260428T12Z_MSC_RDPS_UpwardShortwaveRadiationFlux_NTAtm_RLatLon0.09_PT066H.grib2 2026-04-28 14:58 171K
20260428T12Z_MSC_RDPS_VerticalVelocity_IsbL-0250_RLatLon0.09_PT066H.grib2 2026-04-28 14:58 544K
20260428T12Z_MSC_RDPS_VerticalVelocity_IsbL-0500_RLatLon0.09_PT066H.grib2 2026-04-28 14:58 537K
20260428T12Z_MSC_RDPS_VerticalVelocity_IsbL-0700_RLatLon0.09_PT066H.grib2 2026-04-28 14:58 584K
20260428T12Z_MSC_RDPS_VerticalVelocity_IsbL-0850_RLatLon0.09_PT066H.grib2 2026-04-28 14:58 514K
20260428T12Z_MSC_RDPS_VerticalWindShear_EtaL-6500_RLatLon0.09_PT066H.grib2 2026-04-28 14:58 1.2M
20260428T12Z_MSC_RDPS_WindChill_Sfc_RLatLon0.09_PT066H.grib2 2026-04-28 14:58 1.1M
20260428T12Z_MSC_RDPS_WindDir_AGL-10m_RLatLon0.09_PT066H.grib2 2026-04-28 14:58 963K
20260428T12Z_MSC_RDPS_WindDir_AGL-120m_RLatLon0.09_PT066H.grib2 2026-04-28 14:58 597K
20260428T12Z_MSC_RDPS_WindDir_AGL-40m_RLatLon0.09_PT066H.grib2 2026-04-28 14:58 633K
20260428T12Z_MSC_RDPS_WindDir_AGL-80m_RLatLon0.09_PT066H.grib2 2026-04-28 14:58 610K
20260428T12Z_MSC_RDPS_WindDir_IsbL-0001_RLatLon0.09_PT066H.grib2 2026-04-28 14:58 321K
20260428T12Z_MSC_RDPS_WindDir_IsbL-0005_RLatLon0.09_PT066H.grib2 2026-04-28 14:58 363K
20260428T12Z_MSC_RDPS_WindDir_IsbL-0010_RLatLon0.09_PT066H.grib2 2026-04-28 14:58 399K
20260428T12Z_MSC_RDPS_WindDir_IsbL-0020_RLatLon0.09_PT066H.grib2 2026-04-28 14:58 427K
20260428T12Z_MSC_RDPS_WindDir_IsbL-0030_RLatLon0.09_PT066H.grib2 2026-04-28 14:58 428K
20260428T12Z_MSC_RDPS_WindDir_IsbL-0050_RLatLon0.09_PT066H.grib2 2026-04-28 14:58 433K
20260428T12Z_MSC_RDPS_WindDir_IsbL-0100_RLatLon0.09_PT066H.grib2 2026-04-28 14:58 431K
20260428T12Z_MSC_RDPS_WindDir_IsbL-0150_RLatLon0.09_PT066H.grib2 2026-04-28 14:58 422K
20260428T12Z_MSC_RDPS_WindDir_IsbL-0175_RLatLon0.09_PT066H.grib2 2026-04-28 14:58 443K
20260428T12Z_MSC_RDPS_WindDir_IsbL-0200_RLatLon0.09_PT066H.grib2 2026-04-28 14:58 451K
20260428T12Z_MSC_RDPS_WindDir_IsbL-0225_RLatLon0.09_PT066H.grib2 2026-04-28 14:58 455K
20260428T12Z_MSC_RDPS_WindDir_IsbL-0250_RLatLon0.09_PT066H.grib2 2026-04-28 14:58 457K
20260428T12Z_MSC_RDPS_WindDir_IsbL-0275_RLatLon0.09_PT066H.grib2 2026-04-28 14:58 479K
20260428T12Z_MSC_RDPS_WindDir_IsbL-0300_RLatLon0.09_PT066H.grib2 2026-04-28 14:58 474K
20260428T12Z_MSC_RDPS_WindDir_IsbL-0350_RLatLon0.09_PT066H.grib2 2026-04-28 14:58 497K
20260428T12Z_MSC_RDPS_WindDir_IsbL-0400_RLatLon0.09_PT066H.grib2 2026-04-28 14:58 514K
20260428T12Z_MSC_RDPS_WindDir_IsbL-0450_RLatLon0.09_PT066H.grib2 2026-04-28 14:58 522K
20260428T12Z_MSC_RDPS_WindDir_IsbL-0500_RLatLon0.09_PT066H.grib2 2026-04-28 14:58 534K
20260428T12Z_MSC_RDPS_WindDir_IsbL-0550_RLatLon0.09_PT066H.grib2 2026-04-28 14:58 551K
20260428T12Z_MSC_RDPS_WindDir_IsbL-0600_RLatLon0.09_PT066H.grib2 2026-04-28 14:58 581K
20260428T12Z_MSC_RDPS_WindDir_IsbL-0650_RLatLon0.09_PT066H.grib2 2026-04-28 14:58 624K
20260428T12Z_MSC_RDPS_WindDir_IsbL-0700_RLatLon0.09_PT066H.grib2 2026-04-28 14:58 670K
20260428T12Z_MSC_RDPS_WindDir_IsbL-0750_RLatLon0.09_PT066H.grib2 2026-04-28 14:58 711K
20260428T12Z_MSC_RDPS_WindDir_IsbL-0800_RLatLon0.09_PT066H.grib2 2026-04-28 14:58 769K
20260428T12Z_MSC_RDPS_WindDir_IsbL-0850_RLatLon0.09_PT066H.grib2 2026-04-28 14:58 839K
20260428T12Z_MSC_RDPS_WindDir_IsbL-0875_RLatLon0.09_PT066H.grib2 2026-04-28 14:58 866K
20260428T12Z_MSC_RDPS_WindDir_IsbL-0900_RLatLon0.09_PT066H.grib2 2026-04-28 14:58 885K
20260428T12Z_MSC_RDPS_WindDir_IsbL-0925_RLatLon0.09_PT066H.grib2 2026-04-28 14:58 900K
20260428T12Z_MSC_RDPS_WindDir_IsbL-0950_RLatLon0.09_PT066H.grib2 2026-04-28 14:58 908K
20260428T12Z_MSC_RDPS_WindDir_IsbL-0970_RLatLon0.09_PT066H.grib2 2026-04-28 14:58 914K
20260428T12Z_MSC_RDPS_WindDir_IsbL-0985_RLatLon0.09_PT066H.grib2 2026-04-28 14:58 924K
20260428T12Z_MSC_RDPS_WindDir_IsbL-1000_RLatLon0.09_PT066H.grib2 2026-04-28 14:58 938K
20260428T12Z_MSC_RDPS_WindDir_IsbL-1015_RLatLon0.09_PT066H.grib2 2026-04-28 14:58 955K
20260428T12Z_MSC_RDPS_WindGust-Max_AGL-10m_RLatLon0.09_PT066H.grib2 2026-04-28 14:58 1.0M
20260428T12Z_MSC_RDPS_WindGust-Min_AGL-10m_RLatLon0.09_PT066H.grib2 2026-04-28 14:58 961K
20260428T12Z_MSC_RDPS_WindGust_AGL-10m_RLatLon0.09_PT066H.grib2 2026-04-28 14:58 1.0M
20260428T12Z_MSC_RDPS_WindSpeed_AGL-10m_RLatLon0.09_PT066H.grib2 2026-04-28 14:58 828K
20260428T12Z_MSC_RDPS_WindSpeed_AGL-120m_RLatLon0.09_PT066H.grib2 2026-04-28 14:58 534K
20260428T12Z_MSC_RDPS_WindSpeed_AGL-40m_RLatLon0.09_PT066H.grib2 2026-04-28 14:58 535K
20260428T12Z_MSC_RDPS_WindSpeed_AGL-80m_RLatLon0.09_PT066H.grib2 2026-04-28 14:58 534K
20260428T12Z_MSC_RDPS_WindSpeed_IsbL-0001_RLatLon0.09_PT066H.grib2 2026-04-28 14:58 253K
20260428T12Z_MSC_RDPS_WindSpeed_IsbL-0005_RLatLon0.09_PT066H.grib2 2026-04-28 14:58 385K
20260428T12Z_MSC_RDPS_WindSpeed_IsbL-0010_RLatLon0.09_PT066H.grib2 2026-04-28 14:58 401K
20260428T12Z_MSC_RDPS_WindSpeed_IsbL-0020_RLatLon0.09_PT066H.grib2 2026-04-28 14:58 323K
20260428T12Z_MSC_RDPS_WindSpeed_IsbL-0030_RLatLon0.09_PT066H.grib2 2026-04-28 14:58 323K
20260428T12Z_MSC_RDPS_WindSpeed_IsbL-0050_RLatLon0.09_PT066H.grib2 2026-04-28 14:58 350K
20260428T12Z_MSC_RDPS_WindSpeed_IsbL-0100_RLatLon0.09_PT066H.grib2 2026-04-28 14:58 471K
20260428T12Z_MSC_RDPS_WindSpeed_IsbL-0150_RLatLon0.09_PT066H.grib2 2026-04-28 14:58 376K
20260428T12Z_MSC_RDPS_WindSpeed_IsbL-0175_RLatLon0.09_PT066H.grib2 2026-04-28 14:58 424K
20260428T12Z_MSC_RDPS_WindSpeed_IsbL-0200_RLatLon0.09_PT066H.grib2 2026-04-28 14:58 439K
20260428T12Z_MSC_RDPS_WindSpeed_IsbL-0225_RLatLon0.09_PT066H.grib2 2026-04-28 14:58 448K
20260428T12Z_MSC_RDPS_WindSpeed_IsbL-0250_RLatLon0.09_PT066H.grib2 2026-04-28 14:58 451K
20260428T12Z_MSC_RDPS_WindSpeed_IsbL-0275_RLatLon0.09_PT066H.grib2 2026-04-28 14:58 470K
20260428T12Z_MSC_RDPS_WindSpeed_IsbL-0300_RLatLon0.09_PT066H.grib2 2026-04-28 14:58 466K
20260428T12Z_MSC_RDPS_WindSpeed_IsbL-0350_RLatLon0.09_PT066H.grib2 2026-04-28 14:58 476K
20260428T12Z_MSC_RDPS_WindSpeed_IsbL-0400_RLatLon0.09_PT066H.grib2 2026-04-28 14:58 462K
20260428T12Z_MSC_RDPS_WindSpeed_IsbL-0450_RLatLon0.09_PT066H.grib2 2026-04-28 14:58 460K
20260428T12Z_MSC_RDPS_WindSpeed_IsbL-0500_RLatLon0.09_PT066H.grib2 2026-04-28 14:58 459K
20260428T12Z_MSC_RDPS_WindSpeed_IsbL-0550_RLatLon0.09_PT066H.grib2 2026-04-28 14:58 459K
20260428T12Z_MSC_RDPS_WindSpeed_IsbL-0600_RLatLon0.09_PT066H.grib2 2026-04-28 14:58 584K
20260428T12Z_MSC_RDPS_WindSpeed_IsbL-0650_RLatLon0.09_PT066H.grib2 2026-04-28 14:58 605K
20260428T12Z_MSC_RDPS_WindSpeed_IsbL-0700_RLatLon0.09_PT066H.grib2 2026-04-28 14:58 631K
20260428T12Z_MSC_RDPS_WindSpeed_IsbL-0750_RLatLon0.09_PT066H.grib2 2026-04-28 14:58 660K
20260428T12Z_MSC_RDPS_WindSpeed_IsbL-0800_RLatLon0.09_PT066H.grib2 2026-04-28 14:58 700K
20260428T12Z_MSC_RDPS_WindSpeed_IsbL-0850_RLatLon0.09_PT066H.grib2 2026-04-28 14:58 755K
20260428T12Z_MSC_RDPS_WindSpeed_IsbL-0875_RLatLon0.09_PT066H.grib2 2026-04-28 14:58 822K
20260428T12Z_MSC_RDPS_WindSpeed_IsbL-0900_RLatLon0.09_PT066H.grib2 2026-04-28 14:58 838K
20260428T12Z_MSC_RDPS_WindSpeed_IsbL-0925_RLatLon0.09_PT066H.grib2 2026-04-28 14:58 851K
20260428T12Z_MSC_RDPS_WindSpeed_IsbL-0950_RLatLon0.09_PT066H.grib2 2026-04-28 14:58 856K
20260428T12Z_MSC_RDPS_WindSpeed_IsbL-0970_RLatLon0.09_PT066H.grib2 2026-04-28 14:58 857K
20260428T12Z_MSC_RDPS_WindSpeed_IsbL-0985_RLatLon0.09_PT066H.grib2 2026-04-28 14:58 846K
20260428T12Z_MSC_RDPS_WindSpeed_IsbL-1000_RLatLon0.09_PT066H.grib2 2026-04-28 14:58 837K
20260428T12Z_MSC_RDPS_WindSpeed_IsbL-1015_RLatLon0.09_PT066H.grib2 2026-04-28 14:58 829K
20260428T12Z_MSC_RDPS_WindU_AGL-10m_RLatLon0.09_PT066H.grib2 2026-04-28 14:58 427K
20260428T12Z_MSC_RDPS_WindU_AGL-120m_RLatLon0.09_PT066H.grib2 2026-04-28 14:58 532K
20260428T12Z_MSC_RDPS_WindU_AGL-40m_RLatLon0.09_PT066H.grib2 2026-04-28 14:58 534K
20260428T12Z_MSC_RDPS_WindU_AGL-80m_RLatLon0.09_PT066H.grib2 2026-04-28 14:58 533K
20260428T12Z_MSC_RDPS_WindU_IsbL-0001_RLatLon0.09_PT066H.grib2 2026-04-28 14:58 243K
20260428T12Z_MSC_RDPS_WindU_IsbL-0005_RLatLon0.09_PT066H.grib2 2026-04-28 14:58 288K
20260428T12Z_MSC_RDPS_WindU_IsbL-0010_RLatLon0.09_PT066H.grib2 2026-04-28 14:58 299K
20260428T12Z_MSC_RDPS_WindU_IsbL-0020_RLatLon0.09_PT066H.grib2 2026-04-28 14:58 315K
20260428T12Z_MSC_RDPS_WindU_IsbL-0030_RLatLon0.09_PT066H.grib2 2026-04-28 14:58 315K
20260428T12Z_MSC_RDPS_WindU_IsbL-0050_RLatLon0.09_PT066H.grib2 2026-04-28 14:58 344K
20260428T12Z_MSC_RDPS_WindU_IsbL-0100_RLatLon0.09_PT066H.grib2 2026-04-28 14:58 427K
20260428T12Z_MSC_RDPS_WindU_IsbL-0150_RLatLon0.09_PT066H.grib2 2026-04-28 14:58 393K
20260428T12Z_MSC_RDPS_WindU_IsbL-0175_RLatLon0.09_PT066H.grib2 2026-04-28 14:58 417K
20260428T12Z_MSC_RDPS_WindU_IsbL-0200_RLatLon0.09_PT066H.grib2 2026-04-28 14:58 433K
20260428T12Z_MSC_RDPS_WindU_IsbL-0225_RLatLon0.09_PT066H.grib2 2026-04-28 14:58 341K
20260428T12Z_MSC_RDPS_WindU_IsbL-0250_RLatLon0.09_PT066H.grib2 2026-04-28 14:58 342K
20260428T12Z_MSC_RDPS_WindU_IsbL-0275_RLatLon0.09_PT066H.grib2 2026-04-28 14:58 358K
20260428T12Z_MSC_RDPS_WindU_IsbL-0300_RLatLon0.09_PT066H.grib2 2026-04-28 14:58 353K
20260428T12Z_MSC_RDPS_WindU_IsbL-0350_RLatLon0.09_PT066H.grib2 2026-04-28 14:58 361K
20260428T12Z_MSC_RDPS_WindU_IsbL-0400_RLatLon0.09_PT066H.grib2 2026-04-28 14:58 466K
20260428T12Z_MSC_RDPS_WindU_IsbL-0450_RLatLon0.09_PT066H.grib2 2026-04-28 14:58 465K
20260428T12Z_MSC_RDPS_WindU_IsbL-0500_RLatLon0.09_PT066H.grib2 2026-04-28 14:58 465K
20260428T12Z_MSC_RDPS_WindU_IsbL-0550_RLatLon0.09_PT066H.grib2 2026-04-28 14:58 466K
20260428T12Z_MSC_RDPS_WindU_IsbL-0600_RLatLon0.09_PT066H.grib2 2026-04-28 14:58 474K
20260428T12Z_MSC_RDPS_WindU_IsbL-0650_RLatLon0.09_PT066H.grib2 2026-04-28 14:58 493K
20260428T12Z_MSC_RDPS_WindU_IsbL-0700_RLatLon0.09_PT066H.grib2 2026-04-28 14:58 500K
20260428T12Z_MSC_RDPS_WindU_IsbL-0750_RLatLon0.09_PT066H.grib2 2026-04-28 14:58 526K
20260428T12Z_MSC_RDPS_WindU_IsbL-0800_RLatLon0.09_PT066H.grib2 2026-04-28 14:58 562K
20260428T12Z_MSC_RDPS_WindU_IsbL-0850_RLatLon0.09_PT066H.grib2 2026-04-28 14:58 610K
20260428T12Z_MSC_RDPS_WindU_IsbL-0875_RLatLon0.09_PT066H.grib2 2026-04-28 14:58 628K
20260428T12Z_MSC_RDPS_WindU_IsbL-0900_RLatLon0.09_PT066H.grib2 2026-04-28 14:58 641K
20260428T12Z_MSC_RDPS_WindU_IsbL-0925_RLatLon0.09_PT066H.grib2 2026-04-28 14:58 651K
20260428T12Z_MSC_RDPS_WindU_IsbL-0950_RLatLon0.09_PT066H.grib2 2026-04-28 14:58 652K
20260428T12Z_MSC_RDPS_WindU_IsbL-0970_RLatLon0.09_PT066H.grib2 2026-04-28 14:58 651K
20260428T12Z_MSC_RDPS_WindU_IsbL-0985_RLatLon0.09_PT066H.grib2 2026-04-28 14:58 785K
20260428T12Z_MSC_RDPS_WindU_IsbL-1000_RLatLon0.09_PT066H.grib2 2026-04-28 14:58 778K
20260428T12Z_MSC_RDPS_WindU_IsbL-1015_RLatLon0.09_PT066H.grib2 2026-04-28 14:58 772K
20260428T12Z_MSC_RDPS_WindV_AGL-10m_RLatLon0.09_PT066H.grib2 2026-04-28 14:58 424K
20260428T12Z_MSC_RDPS_WindV_AGL-120m_RLatLon0.09_PT066H.grib2 2026-04-28 14:58 527K
20260428T12Z_MSC_RDPS_WindV_AGL-40m_RLatLon0.09_PT066H.grib2 2026-04-28 14:58 529K
20260428T12Z_MSC_RDPS_WindV_AGL-80m_RLatLon0.09_PT066H.grib2 2026-04-28 14:58 528K
20260428T12Z_MSC_RDPS_WindV_IsbL-0001_RLatLon0.09_PT066H.grib2 2026-04-28 14:58 246K
20260428T12Z_MSC_RDPS_WindV_IsbL-0005_RLatLon0.09_PT066H.grib2 2026-04-28 14:58 290K
20260428T12Z_MSC_RDPS_WindV_IsbL-0010_RLatLon0.09_PT066H.grib2 2026-04-28 14:58 303K
20260428T12Z_MSC_RDPS_WindV_IsbL-0020_RLatLon0.09_PT066H.grib2 2026-04-28 14:58 318K
20260428T12Z_MSC_RDPS_WindV_IsbL-0030_RLatLon0.09_PT066H.grib2 2026-04-28 14:58 318K
20260428T12Z_MSC_RDPS_WindV_IsbL-0050_RLatLon0.09_PT066H.grib2 2026-04-28 14:58 344K
20260428T12Z_MSC_RDPS_WindV_IsbL-0100_RLatLon0.09_PT066H.grib2 2026-04-28 14:58 424K
20260428T12Z_MSC_RDPS_WindV_IsbL-0150_RLatLon0.09_PT066H.grib2 2026-04-28 14:58 391K
20260428T12Z_MSC_RDPS_WindV_IsbL-0175_RLatLon0.09_PT066H.grib2 2026-04-28 14:58 416K
20260428T12Z_MSC_RDPS_WindV_IsbL-0200_RLatLon0.09_PT066H.grib2 2026-04-28 14:58 430K
20260428T12Z_MSC_RDPS_WindV_IsbL-0225_RLatLon0.09_PT066H.grib2 2026-04-28 14:58 436K
20260428T12Z_MSC_RDPS_WindV_IsbL-0250_RLatLon0.09_PT066H.grib2 2026-04-28 14:58 340K
20260428T12Z_MSC_RDPS_WindV_IsbL-0275_RLatLon0.09_PT066H.grib2 2026-04-28 14:58 356K
20260428T12Z_MSC_RDPS_WindV_IsbL-0300_RLatLon0.09_PT066H.grib2 2026-04-28 14:58 451K
20260428T12Z_MSC_RDPS_WindV_IsbL-0350_RLatLon0.09_PT066H.grib2 2026-04-28 14:58 462K
20260428T12Z_MSC_RDPS_WindV_IsbL-0400_RLatLon0.09_PT066H.grib2 2026-04-28 14:58 465K
20260428T12Z_MSC_RDPS_WindV_IsbL-0450_RLatLon0.09_PT066H.grib2 2026-04-28 14:58 464K
20260428T12Z_MSC_RDPS_WindV_IsbL-0500_RLatLon0.09_PT066H.grib2 2026-04-28 14:58 463K
20260428T12Z_MSC_RDPS_WindV_IsbL-0550_RLatLon0.09_PT066H.grib2 2026-04-28 14:58 463K
20260428T12Z_MSC_RDPS_WindV_IsbL-0600_RLatLon0.09_PT066H.grib2 2026-04-28 14:58 454K
20260428T12Z_MSC_RDPS_WindV_IsbL-0650_RLatLon0.09_PT066H.grib2 2026-04-28 14:58 473K
20260428T12Z_MSC_RDPS_WindV_IsbL-0700_RLatLon0.09_PT066H.grib2 2026-04-28 14:58 496K
20260428T12Z_MSC_RDPS_WindV_IsbL-0750_RLatLon0.09_PT066H.grib2 2026-04-28 14:58 521K
20260428T12Z_MSC_RDPS_WindV_IsbL-0800_RLatLon0.09_PT066H.grib2 2026-04-28 14:58 557K
20260428T12Z_MSC_RDPS_WindV_IsbL-0850_RLatLon0.09_PT066H.grib2 2026-04-28 14:58 607K
20260428T12Z_MSC_RDPS_WindV_IsbL-0875_RLatLon0.09_PT066H.grib2 2026-04-28 14:58 625K
20260428T12Z_MSC_RDPS_WindV_IsbL-0900_RLatLon0.09_PT066H.grib2 2026-04-28 14:58 639K
20260428T12Z_MSC_RDPS_WindV_IsbL-0925_RLatLon0.09_PT066H.grib2 2026-04-28 14:58 787K
20260428T12Z_MSC_RDPS_WindV_IsbL-0950_RLatLon0.09_PT066H.grib2 2026-04-28 14:58 787K
20260428T12Z_MSC_RDPS_WindV_IsbL-0970_RLatLon0.09_PT066H.grib2 2026-04-28 14:58 786K
20260428T12Z_MSC_RDPS_WindV_IsbL-0985_RLatLon0.09_PT066H.grib2 2026-04-28 14:58 779K
20260428T12Z_MSC_RDPS_WindV_IsbL-1000_RLatLon0.09_PT066H.grib2 2026-04-28 14:58 817K
20260428T12Z_MSC_RDPS_WindV_IsbL-1015_RLatLon0.09_PT066H.grib2 2026-04-28 14:58 810K